Theta_e
319 319 320 318 315 314 315 316 317 317 318 317 317 317 317 316 315 315 316 316 316 317 318 318 317 317 322 329 333 329 325 324 331 334 337 341 344 345 346 347 348 349 349 349 348 347 347
317 318 319 320 318 316 317 317 317 317 317 317 318 318 317 316 316 315 315 316 317 319 322 319 317 315 328 327 326 330 335 335 332 336 338 340 343 343 345 345 349 349 350 349 349 349 348
317 317 318 319 319 318 318 317 317 317 317 317 317 317 317 316 316 315 315 316 318 321 322 319 317 320 327 327 327 331 335 337 334 337 340 339 341 343 344 346 346 348 350 351 350 349 348
318 318 319 319 318 317 316 316 316 316 316 316 316 316 317 316 315 314 315 316 319 317 318 317 314 326 327 323 323 329 333 335 335 337 339 339 340 343 345 345 346 347 349 354 350 349 348
316 318 319 317 315 315 314 314 314 315 315 314 315 314 315 316 315 314 315 317 320 316 314 314 325 329 326 320 322 330 332 335 337 338 339 340 341 344 345 351 349 350 348 349 352 349 349
312 312 313 312 312 312 312 312 312 312 312 311 311 310 312 314 314 313 316 321 323 321 327 326 326 329 325 324 326 331 333 336 339 339 340 340 342 345 345 350 351 346 347 347 350 349 350
310 311 311 310 310 311 311 310 310 311 311 310 311 313 312 312 313 313 316 327 331 332 329 324 325 325 325 327 329 331 333 335 338 339 340 340 342 347 342 343 343 343 346 346 347 346 350
308 307 308 309 309 309 309 312 313 314 314 314 314 314 313 311 312 314 317 330 327 326 330 325 326 325 326 329 330 332 334 337 338 340 340 341 343 343 341 341 341 342 344 347 347 346 350
308 307 307 309 309 309 311 312 313 313 313 313 313 313 314 311 312 318 324 326 325 325 330 327 325 325 326 329 331 332 334 336 338 339 339 341 342 341 340 340 340 342 343 344 346 349 346
306 307 307 307 308 310 311 311 312 313 313 313 313 313 314 310 317 323 325 328 324 326 331 327 325 325 326 329 330 332 332 335 337 338 339 340 341 340 341 340 339 345 340 342 344 347 345
307 307 306 308 309 309 310 311 312 312 312 312 312 313 315 315 316 322 325 323 323 327 326 327 325 326 327 329 331 332 331 334 336 337 338 340 341 340 341 341 337 340 339 341 343 346 341
307 307 306 307 308 308 309 310 311 312 311 311 312 313 315 318 320 320 322 322 326 332 325 325 325 325 326 329 331 331 332 334 334 335 338 339 338 339 340 339 338 337 339 342 343 343 342
307 306 305 306 307 308 309 311 311 311 310 311 313 314 313 316 322 322 321 325 330 327 327 326 325 326 327 328 331 331 331 332 333 336 338 338 338 338 337 339 338 338 343 352 349 342 342
307 306 306 306 307 308 307 309 310 310 310 311 314 316 316 316 318 320 322 328 332 325 326 327 326 326 326 328 331 332 331 331 331 334 337 338 339 338 337 338 341 341 342 347 348 343 340
309 308 306 306 307 306 306 308 309 308 308 311 316 319 320 320 319 320 325 331 332 325 328 326 326 326 326 328 330 329 330 330 330 332 335 337 338 337 338 339 340 341 344 340 342 339 340
307 307 307 307 306 306 306 305 306 307 309 311 315 321 322 320 320 321 326 328 328 328 328 327 326 327 328 329 328 328 328 330 330 331 333 335 338 337 338 340 341 344 348 346 347 341 339
306 306 307 307 305 306 307 305 306 307 310 314 317 325 322 321 322 325 328 330 329 327 327 327 327 327 328 329 328 329 329 329 329 330 333 334 337 338 339 342 341 342 343 347 343 339 338
307 306 306 307 305 305 306 305 305 306 309 318 323 323 325 322 326 324 327 329 319 327 326 327 328 328 329 329 328 329 330 330 330 331 331 334 336 340 339 341 342 340 340 339 348 353 336
307 306 307 306 306 305 305 305 305 306 307 313 327 329 325 324 325 323 324 327 326 327 327 327 327 328 329 329 330 330 330 330 329 330 330 334 339 342 340 339 338 336 338 340 342 343 338
307 306 308 306 306 304 306 307 304 306 307 312 326 327 328 327 327 328 325 327 326 327 327 328 328 328 328 329 330 330 330 330 330 329 340 336 338 340 340 337 337 337 338 338 339 337 337
307 306 305 306 306 304 305 304 304 307 309 313 326 332 331 328 326 328 326 326 325 328 328 329 328 328 328 329 328 329 330 329 329 333 331 333 337 339 339 337 337 337 338 337 338 338 337
306 306 305 307 306 305 303 303 304 307 313 319 328 330 331 334 331 328 326 326 324 328 328 330 330 329 329 328 329 330 330 330 331 330 330 333 338 340 340 336 334 336 336 335 334 334 334
305 305 306 305 305 306 303 304 306 306 312 321 321 323 328 328 332 331 331 331 328 328 331 335 334 334 333 338 338 338 334 332 331 332 331 333 336 339 340 337 334 335 335 334 334 334 334
305 305 305 305 306 305 303 304 306 305 305 314 319 320 328 333 332 331 332 332 333 335 337 333 335 337 340 335 335 336 335 333 332 332 332 334 336 337 338 339 339 335 336 335 335 335 334
304 304 305 304 307 305 304 304 304 305 305 312 317 320 327 331 331 336 335 334 335 336 336 336 335 337 336 334 336 333 332 331 330 332 332 333 334 336 338 339 338 340 339 337 337 339 337
304 304 305 304 304 305 305 304 304 305 305 310 316 317 321 328 328 333 335 334 336 333 333 335 335 334 334 334 334 335 331 331 332 331 331 331 333 334 335 335 340 340 339 337 337 341 342
303 303 304 304 304 304 305 304 304 304 304 307 314 315 319 324 325 327 331 333 334 336 335 335 336 334 333 334 335 335 332 332 333 335 335 332 332 333 335 335 336 337 338 338 340 338 344
304 304 303 304 304 303 304 305 305 304 304 307 314 314 317 322 322 322 324 329 332 335 337 338 336 334 335 333 334 335 333 334 334 335 335 334 334 333 335 337 337 341 342 338 342 347 345
304 304 304 303 303 303 305 304 306 304 304 305 313 313 314 317 320 319 319 320 323 326 330 333 338 339 342 338 336 337 337 335 336 337 335 335 333 334 334 336 344 343 339 340 341 345 345
Wind_Speed
14 14 16 15 16 17 18 19 21 22 23 24 26 27 28 28 28 27 28 28 31 27 21 16 12 11 6 9 10 5 4 12 10 10 13 9 9 7 7 5 3 12 9 8 8 7 12
14 12 14 15 16 17 18 20 21 22 24 25 27 28 29 30 29 28 29 29 30 24 18 12 9 7 7 15 2 3 7 12 13 12 10 10 4 8 5 5 5 8 9 8 6 9 5
16 11 10 13 16 17 19 22 24 24 24 26 28 29 29 31 30 28 29 32 26 20 12 9 6 4 11 10 2 4 11 15 14 12 12 2 9 13 3 10 6 12 10 10 6 5 6
14 9 7 10 13 17 21 23 24 25 26 27 29 29 29 30 30 29 28 29 21 12 6 4 3 6 8 6 6 8 13 15 10 9 7 4 8 3 6 9 10 11 15 9 8 6 4
14 10 10 12 14 16 18 22 24 26 27 28 29 29 28 30 30 29 29 24 13 7 4 2 4 9 12 5 13 14 17 17 14 10 6 5 14 8 12 20 6 20 6 13 8 8 4
15 14 13 14 16 19 21 23 25 26 27 27 27 27 27 29 29 28 29 17 9 9 6 7 11 8 11 13 17 14 17 18 14 11 9 12 16 12 6 15 1 12 9 9 8 8 6
15 16 15 17 19 21 23 24 24 24 25 24 24 26 28 29 27 26 26 7 5 7 14 12 9 12 5 11 11 15 19 15 17 13 16 16 13 4 11 10 6 4 13 13 6 7 8
18 17 18 17 19 20 19 20 23 23 23 23 23 27 28 28 24 23 12 8 8 8 9 20 13 14 5 6 14 19 23 17 17 17 19 12 10 8 5 2 3 6 2 10 7 5 9
18 18 17 17 19 17 20 20 21 22 23 24 25 28 29 27 24 11 10 12 5 12 8 16 19 17 13 15 17 20 21 22 19 20 20 15 7 10 3 8 3 7 8 8 4 10 5
18 17 18 17 13 16 18 19 20 22 24 25 27 27 29 26 11 10 13 2 8 9 6 13 18 12 17 18 17 22 24 21 12 21 21 14 11 6 8 6 2 12 5 1 6 10 6
16 18 17 14 14 16 18 19 20 22 24 26 28 27 27 16 16 9 6 6 11 8 8 16 24 16 15 22 17 20 24 19 19 20 14 18 10 10 11 5 6 8 3 2 8 10 12
15 16 17 14 14 15 16 18 20 22 26 28 27 27 24 7 10 14 12 9 6 8 11 10 15 18 22 22 20 16 20 15 15 16 14 15 7 11 8 5 6 6 11 13 12 7 9
14 15 17 16 17 16 16 18 21 25 28 30 29 25 20 11 10 1 7 7 7 14 8 19 22 23 24 19 23 24 19 20 18 15 16 18 12 12 4 12 10 13 11 5 7 4 9
15 16 17 18 19 17 19 20 24 28 31 31 32 21 14 17 11 11 13 8 14 21 20 21 19 25 24 25 24 24 23 20 22 20 13 17 15 17 14 15 10 10 7 9 9 4 12
16 16 17 19 19 20 20 22 24 28 32 37 24 12 12 10 17 12 9 13 15 18 14 13 25 26 22 26 17 20 22 22 22 21 18 16 17 19 15 11 10 4 8 14 8 6 8
15 15 17 19 20 21 22 23 26 28 32 29 13 12 18 14 14 15 10 20 22 8 3 10 20 22 25 28 21 22 21 23 22 25 23 11 11 17 12 6 10 6 21 3 10 2 11
14 15 16 18 20 21 23 24 26 29 33 13 8 6 16 14 14 10 13 25 12 5 4 11 20 22 23 26 21 21 19 16 24 21 19 12 15 12 12 12 13 10 10 12 7 5 6
14 14 15 17 20 21 22 23 25 29 35 8 10 8 12 19 11 13 16 25 2 10 10 10 10 20 22 22 22 19 19 11 20 22 21 17 11 16 16 17 10 10 10 8 5 11 4
13 15 16 17 19 21 22 23 25 27 27 12 4 2 12 17 12 14 22 26 8 10 12 10 10 10 18 20 18 16 15 17 18 18 22 17 11 13 16 9 10 9 12 11 9 16 2
13 15 16 17 18 20 22 24 25 26 26 5 5 5 6 9 15 11 19 11 15 8 2 3 4 9 9 14 17 18 16 11 11 21 15 15 19 13 12 14 16 16 12 8 11 5 10
12 14 15 15 17 19 22 24 25 25 21 4 5 4 4 11 13 14 17 16 18 13 9 8 8 14 14 12 17 15 17 14 12 9 18 19 19 12 8 4 5 12 10 9 12 3 4
12 14 15 14 15 17 20 23 24 25 18 7 6 4 5 9 1 15 7 12 19 15 12 12 9 8 8 16 17 15 18 13 17 17 19 22 16 15 12 10 6 8 13 11 8 1 7
12 14 14 14 14 15 18 20 22 25 18 6 9 11 6 4 10 11 10 9 15 10 7 8 5 4 15 10 11 13 3 7 18 17 19 22 17 13 13 10 10 11 10 8 7 5 6
12 13 13 13 12 13 15 16 19 20 18 11 8 10 7 8 7 9 2 2 5 6 5 10 4 9 8 7 7 8 7 7 1 18 18 20 21 11 10 14 15 9 17 13 7 5 5
11 11 12 13 10 11 12 14 16 17 17 12 8 7 5 9 5 5 3 5 4 3 9 5 4 6 7 8 9 13 12 14 13 14 16 20 15 13 11 14 11 6 6 7 8 9 5
11 11 11 12 11 11 12 12 14 16 17 11 6 7 8 6 2 11 4 4 9 10 11 9 4 6 7 6 11 11 12 14 15 17 17 16 17 12 14 13 16 13 17 13 10 8 8
11 11 11 11 11 11 11 11 12 14 16 12 8 7 7 8 1 4 3 6 6 8 4 5 1 7 7 8 9 9 13 15 14 20 16 15 14 16 11 13 12 11 17 8 10 10 16
12 12 11 11 11 11 12 10 11 12 15 13 8 5 8 6 5 2 7 8 3 6 7 7 5 7 4 10 10 9 10 10 13 19 22 15 14 13 13 11 11 18 14 10 5 13 16
12 10 10 10 11 11 11 10 9 11 12 11 7 3 7 6 9 9 13 13 10 8 7 5 6 5 7 5 6 4 6 4 14 11 20 18 17 13 14 14 12 19 12 11 10 13 14
Wind_Direction
318 327 332 339 343 345 347 347 345 344 345 345 344 344 344 343 341 338 336 334 329 323 318 314 310 307 311 227 256 134 185 187 200 233 253 296 264 291 39 74 81 97 92 98 101 107 90
319 311 318 328 337 341 343 343 341 339 338 339 340 340 340 338 338 335 333 333 328 321 312 303 295 289 253 246 109 166 200 187 213 224 248 265 358 334 92 63 40 96 99 103 128 100 122
338 314 310 322 332 336 338 338 337 334 334 334 335 336 335 334 334 333 332 333 328 323 305 289 267 252 258 243 233 223 210 204 208 229 261 309 323 274 172 114 130 143 126 136 120 135 143
360 359 334 326 327 328 332 333 333 330 330 329 330 332 331 330 331 330 329 330 325 325 317 280 236 238 255 200 233 225 204 198 205 225 277 298 268 267 292 124 163 163 181 151 139 173 156
355 356 342 331 325 325 328 331 329 327 326 326 326 329 327 327 329 329 327 324 313 319 317 255 231 230 243 166 212 205 199 196 198 207 233 277 267 271 203 30 276 128 134 114 144 206 140
350 348 341 335 334 331 329 328 328 325 324 326 327 331 327 325 328 327 325 320 277 281 271 253 267 248 239 214 194 183 196 212 199 203 212 241 241 231 207 151 33 89 144 115 99 153 196
351 347 340 333 331 325 328 332 331 334 334 333 336 335 330 323 326 326 324 289 218 204 221 223 195 234 132 150 143 191 184 203 204 213 225 210 253 233 48 42 66 329 30 82 105 132 217
350 348 339 333 334 337 341 341 344 342 338 342 342 339 329 322 324 319 294 271 40 337 283 224 249 252 295 215 190 195 182 200 201 213 234 224 217 152 78 4 267 254 222 81 99 144 231
342 346 348 343 341 346 344 342 341 340 342 340 339 337 329 322 319 295 270 290 326 329 255 223 213 229 212 211 207 182 189 203 201 216 224 246 59 101 263 200 327 0 47 54 36 150 206
343 346 340 334 342 344 342 337 335 333 334 333 334 333 330 325 303 326 272 149 310 303 262 194 201 222 210 198 216 182 200 202 206 218 230 235 138 157 218 252 261 255 72 214 301 174 127
347 342 349 345 343 339 337 335 333 330 327 327 330 330 325 328 304 274 29 314 322 248 235 177 184 197 178 202 183 180 189 204 218 214 219 221 142 182 248 32 310 97 255 264 227 157 157
341 340 341 337 328 329 332 334 330 327 325 324 325 325 317 298 238 256 292 299 273 232 221 157 145 180 180 201 181 164 191 221 231 213 226 245 190 199 247 122 246 260 237 216 206 231 96
342 336 338 333 323 319 327 334 334 329 325 324 320 314 296 269 232 311 284 256 217 226 163 159 169 183 185 187 199 170 186 203 210 212 203 232 187 213 247 223 203 239 191 266 16 154 80
328 336 338 337 332 331 328 328 331 330 330 329 321 300 275 242 254 256 251 218 240 210 186 155 178 179 193 187 198 177 190 199 214 214 192 204 208 203 190 254 293 242 303 258 167 126 126
327 328 334 339 334 333 332 327 325 328 330 334 322 274 228 241 221 227 234 216 226 194 193 183 182 181 193 185 190 192 202 207 196 219 232 196 229 188 200 201 252 272 257 1 12 177 146
322 326 330 335 339 337 337 337 336 335 331 339 313 272 240 192 181 201 223 239 225 10 102 239 189 188 189 180 202 192 195 204 202 214 230 191 202 172 173 227 236 50 269 68 202 119 115
328 327 329 332 337 339 338 339 340 341 334 333 264 231 137 173 182 217 214 230 237 162 219 240 218 189 194 180 199 190 186 192 207 188 235 252 207 169 164 214 203 197 234 173 244 341 143
325 330 333 330 336 340 340 341 343 348 344 341 276 236 153 168 200 211 216 230 90 181 199 253 282 221 202 179 193 184 190 194 200 183 205 238 227 165 196 209 249 293 231 214 84 306 9
325 325 328 333 334 338 342 345 344 349 358 321 259 245 170 196 223 195 222 236 180 213 198 198 224 256 202 187 188 197 208 195 191 193 196 216 244 161 192 171 201 251 258 244 201 199 114
326 326 324 327 332 338 341 343 342 345 351 313 271 215 156 211 255 273 211 218 196 251 147 247 253 214 232 237 188 204 198 148 181 205 191 229 239 194 182 198 192 210 219 254 274 169 136
318 325 324 323 330 335 344 342 342 343 348 269 244 278 24 195 215 235 227 200 208 174 236 205 199 210 201 207 194 194 207 163 184 178 176 220 237 243 105 106 156 167 197 197 265 10 349
318 323 328 323 327 333 339 346 345 347 339 248 307 338 311 307 217 214 229 229 202 196 175 183 235 191 241 214 206 195 198 162 186 177 193 210 230 248 217 161 214 254 177 188 220 358 295
318 319 321 324 324 331 339 349 350 352 360 313 5 284 270 193 222 218 206 211 221 184 199 336 46 204 214 43 13 336 17 196 177 180 199 202 222 218 217 213 193 238 225 195 201 222 263
312 315 317 319 316 325 338 346 351 350 360 317 338 301 270 251 235 222 262 129 236 189 282 167 211 260 43 336 288 255 248 250 230 177 198 202 213 217 228 210 212 219 218 208 209 180 236
319 316 318 322 313 321 333 345 350 352 350 329 327 315 297 280 238 139 256 202 219 198 243 237 155 353 312 277 231 185 193 210 203 220 215 199 203 221 214 232 195 139 185 186 219 210 218
321 319 316 320 313 318 324 336 345 349 351 338 321 318 281 286 153 358 189 241 239 208 189 227 157 280 270 255 222 189 184 183 199 201 218 232 203 215 221 237 222 183 190 211 210 223 182
314 318 317 317 319 313 316 326 341 347 351 338 297 337 277 279 356 299 264 302 251 324 258 138 132 235 230 240 227 197 211 189 192 194 198 215 222 215 206 223 247 194 140 147 220 255 163
311 305 310 311 310 314 309 313 329 343 350 350 328 345 320 292 306 303 286 292 283 267 271 56 225 211 232 236 236 228 235 178 208 188 187 206 197 218 221 206 219 125 131 195 121 128 155
318 312 306 303 302 308 304 309 311 331 344 343 280 350 314 272 311 312 279 276 276 314 325 321 7 345 14 258 240 292 262 195 214 196 188 206 203 212 208 220 145 155 158 205 153 148 153